Find Starlink 30843

NORAD ID: 58241 Int'l Des: 2023-171 Owner: SPXS Country: US Constellation: starlink operational
LEOCIRCULAR

当前视图

正在加载3D地球...

About Starlink 30843

Starlink 30843 (NORAD 58241) is a starlink constellation satellite (v2 mini) launched Nov 8, 2023 by SPXS of US. It operates in LEO, CIRCULAR orbit with a mass of 730.00 kg.

关于 Starlink 30843

正在加载描述...

即将过境

Passes for default location (London). Set your location on the main map for personalized predictions.

高度历史

Loading altitude history...

两行轨道根数

1 58241U 23171M 26171.41666822 -.00000692 00000-0 -15644-4 0 9999
2 58241 43.0027 65.2123 0000619 298.9742 61.1048 15.27574204145461
Epoch: Jun 20, 2026 • Age: 43 hours

当前状态

高度 485.2 km
速度 7.62 km/s
星下点 -11.25°S, 101.52°W
发射日期 Nov 8, 2023
运行时间 2.6 years
类型 internet

技术详情

分类 Payload
质量 730.00 kg
干质量 700.00 kg
总质量 730.00 kg
长度 0.30 m
直径 4.10 m
跨度 29.00 m
形状 Box + pan
制造商 SPXS
平台类型 Starlink V2M
阶段状态 In Orbit
所有者/国家 SPXS/US

Most Searched